Temp
10 10 10 10 10 10 9 10 9 9 9 9 9 9 9 9 9 9 9 9 9 9 9 9 9 9 9 10 10 10 10 9 9 9 9 9 9 8 8 8 8 8 8 8 8 8 8 8 8 8 8 8 8 8 8 8 8 8 8 8 8 8 8 8 8 7 7 8 8 8 8 8 8 8 8 8 8 8 7 7 7 7 7 7 7
10 10 10 10 10 10 10 10 9 9 9 9 9 9 9 9 9 9 9 9 9 9 9 9 9 9 9 10 10 10 10 9 9 9 9 9 8 8 8 8 8 8 8 8 8 8 8 8 8 8 8 8 8 8 8 8 8 8 8 8 8 8 8 8 7 7 7 8 8 8 8 8 8 8 8 7 8 8 7 7 7 7 7 7 7
10 10 10 10 10 10 10 10 9 9 9 9 9 9 9 9 9 9 9 9 9 9 9 9 9 9 9 10 9 9 9 9 9 9 9 9 8 8 8 8 8 8 8 7 8 8 8 8 8 8 7 7 7 8 8 8 8 8 8 8 8 8 8 8 7 7 7 8 8 8 8 8 8 8 8 8 8 8 8 7 7 7 7 7 7
10 10 10 10 10 10 10 10 9 9 9 9 9 9 9 9 9 9 9 9 9 9 9 9 9 9 9 9 9 9 9 9 9 9 9 8 8 8 8 8 8 8 7 7 8 8 8 8 8 7 7 7 7 8 8 8 8 8 8 8 8 8 8 8 7 7 7 7 8 8 9 8 8 8 8 8 8 8 8 8 8 7 7 7 7
10 10 10 10 10 10 10 9 9 9 9 9 9 9 9 9 9 9 9 9 9 9 9 9 9 9 9 9 9 9 9 9 9 9 9 8 8 8 8 8 8 8 7 8 8 8 8 8 8 7 7 7 7 8 8 8 8 8 8 8 8 8 8 8 8 7 7 7 8 8 8 8 8 8 8 8 9 9 9 8 8 8 7 7 7
10 10 10 10 10 10 10 10 9 9 9 9 9 9 9 9 9 9 9 9 9 9 9 9 9 9 9 9 9 9 9 9 9 9 8 8 8 8 8 8 8 8 8 8 8 8 8 8 7 7 7 7 8 8 8 8 8 8 8 8 8 8 8 8 8 8 8 7 7 8 8 8 8 8 8 8 8 9 9 9 8 8 8 7 7
10 10 10 10 10 10 10 9 9 9 9 9 9 9 9 9 9 9 9 9 9 9 9 9 9 9 9 9 9 9 9 9 9 8 8 8 8 8 8 8 8 8 8 8 7 8 8 7 7 7 7 7 8 8 8 8 7 8 8 8 8 8 8 8 7 8 8 8 7 8 8 8 8 8 7 7 8 8 9 9 9 8 8 8 7
10 10 10 10 10 10 9 9 9 9 9 8 8 9 9 9 9 9 9 9 9 9 9 9 9 9 9 9 9 9 9 9 8 8 8 8 8 8 8 8 8 8 7 7 7 7 7 7 7 7 7 7 7 8 8 8 7 7 7 7 8 8 8 8 8 7 7 8 8 8 8 8 8 8 7 7 8 8 8 9 9 8 8 8 8
10 10 10 9 9 9 9 9 9 9 9 9 9 9 9 9 9 9 9 9 9 9 9 9 9 9 9 9 9 9 9 8 8 8 8 8 8 8 8 8 8 8 7 7 7 7 7 7 7 7 7 7 7 7 8 8 8 8 7 7 8 8 8 8 8 8 7 8 8 8 8 8 8 7 7 7 7 7 8 8 8 8 8 8 8
10 10 10 9 9 9 9 9 9 9 9 9 9 9 9 9 9 9 9 9 9 9 9 9 9 9 9 9 9 9 8 8 8 8 8 8 8 8 8 8 8 7 7 7 7 7 7 7 7 7 7 7 7 7 8 8 8 8 8 8 8 8 8 8 8 8 8 8 8 8 8 8 8 7 7 7 7 7 7 8 8 8 8 8 8
10 10 9 9 9 9 9 9 9 9 9 9 9 9 9 9 9 9 9 9 9 9 9 9 9 9 9 9 8 8 8 8 8 8 8 8 8 8 8 8 8 7 7 7 7 7 7 7 7 7 7 7 8 7 7 7 8 8 8 8 8 8 8 8 8 8 8 8 8 8 8 8 8 8 8 7 7 7 7 7 8 8 8 8 8
10 10 10 9 9 9 9 9 9 9 9 9 9 9 9 9 9 9 9 9 9 9 9 9 9 9 9 8 8 8 9 9 8 8 8 8 8 8 8 8 8 7 7 7 7 7 7 7 7 8 7 7 8 8 7 7 7 8 8 8 8 8 8 8 8 8 8 8 8 8 8 8 8 8 8 8 8 7 7 7 8 8 8 8 8
10 10 10 9 9 9 9 9 9 9 9 9 9 9 9 9 9 9 9 9 9 9 9 9 9 9 9 9 9 9 9 8 8 8 8 8 8 8 8 7 7 7 7 7 7 7 7 7 7 7 7 8 8 8 8 7 7 7 8 8 8 8 8 8 8 8 8 8 8 8 8 8 8 8 9 8 8 7 7 7 8 8 8 8 8
10 10 10 10 9 9 9 9 9 9 9 9 9 9 9 9 9 9 9 9 9 9 9 9 9 9 9 9 9 9 8 8 8 8 8 8 8 8 7 7 7 7 7 7 7 7 7 7 7 7 8 8 7 8 8 7 7 7 7 8 8 8 8 8 8 8 8 8 8 8 8 8 8 8 9 9 8 8 7 7 7 8 8 8 8
9 9 10 9 9 9 9 9 9 9 9 9 9 9 9 9 9 9 9 9 9 8 9 9 9 9 9 9 9 8 8 8 8 8 8 8 8 8 7 7 7 7 7 7 7 7 7 7 7 8 8 8 8 8 8 7 7 7 7 8 8 8 8 8 9 8 8 8 8 8 8 8 8 8 9 9 9 8 8 8 7 7 8 8 8
9 9 9 9 9 9 9 9 9 9 9 9 9 9 9 9 9 9 9 8 8 8 8 8 9 9 9 8 8 8 8 8 8 8 8 8 8 7 7 7 7 7 7 7 8 8 8 8 8 8 7 8 8 8 8 7 7 7 7 8 8 8 8 8 9 8 8 8 8 8 8 8 8 8 8 9 9 9 9 8 8 7 7 7 7
9 9 9 9 9 9 9 9 9 9 9 9 9 9 8 9 8 8 8 8 8 8 8 9 9 9 9 8 8 8 8 8 8 8 8 8 8 8 8 7 7 7 7 7 8 8 8 8 8 8 7 8 8 8 8 7 7 7 7 7 8 8 8 8 8 8 8 8 8 8 8 8 8 7 8 9 9 9 9 9 8 8 8 7 7
9 9 9 9 9 9 9 9 9 9 9 9 9 9 9 9 8 8 8 8 8 8 9 9 9 9 9 9 8 8 8 8 8 8 8 8 8 8 8 8 8 7 7 8 8 8 8 8 8 8 8 8 8 8 7 7 7 7 7 7 7 8 8 8 8 8 9 8 8 8 8 8 8 7 7 8 9 9 9 9 9 9 8 8 7
10 10 10 10 9 9 9 9 9 9 9 9 9 9 9 9 9 9 9 9 9 9 9 9 9 9 9 8 8 8 8 8 8 8 8 8 8 8 8 8 8 7 7 7 7 8 8 8 8 8 8 8 7 8 8 8 7 7 7 7 7 8 8 8 8 8 8 8 8 8 8 8 8 8 7 8 8 9 9 9 9 9 9 8 7
10 10 10 9 9 9 9 9 9 9 9 9 9 8 9 9 9 9 9 9 9 9 9 9 9 9 9 8 8 8 8 8 8 8 8 8 8 8 8 8 7 7 7 7 7 7 8 8 8 8 8 7 8 8 8 8 8 7 7 7 7 8 8 8 8 8 8 8 8 8 8 8 8 8 8 7 8 9 9 9 9 9 9 9 8
10 10 10 9 9 9 9 9 9 9 9 9 9 9 9 9 9 9 9 9 9 9 9 9 9 9 8 8 8 8 8 8 8 8 8 8 8 8 7 7 7 7 7 7 7 7 8 8 8 8 8 8 8 8 8 8 8 8 7 7 7 7 8 8 8 8 8 8 8 8 8 8 8 8 8 7 8 8 9 9 9 9 9 9 9
10 10 10 10 10 10 10 9 9 9 9 9 9 9 9 9 9 9 9 9 9 9 9 9 9 8 8 8 8 8 8 8 8 8 8 8 8 7 7 7 7 7 7 7 7 7 8 8 8 8 8 8 8 8 8 8 8 8 8 8 8 7 7 7 8 8 8 8 8 8 8 8 8 8 8 8 8 8 8 9 9 9 9 9 9
10 10 10 10 10 10 10 10 9 9 9 9 9 9 9 9 9 9 9 9 9 9 9 9 9 8 8 8 8 8 8 8 8 8 8 8 8 7 7 7 7 7 7 7 8 8 8 8 8 8 8 8 8 8 8 8 8 8 8 8 8 8 7 7 7 7 7 8 8 8 8 8 8 8 8 8 8 8 8 8 9 9 9 9 9
11 11 11 11 10 10 10 10 10 9 9 9 9 9 9 9 9 9 9 9 9 8 8 8 8 9 8 8 8 8 8 8 8 8 8 8 8 7 8 8 7 7 8 8 8 8 8 8 8 8 8 8 8 8 8 8 8 8 8 8 8 8 8 7 7 7 7 7 8 8 8 8 8 8 8 7 7 7 8 8 8 9 9 9 9
11 11 11 11 11 10 10 10 10 9 9 9 9 9 9 9 9 9 9 9 9 9 9 9 9 8 8 8 8 8 8 8 8 8 8 8 8 8 8 8 8 7 8 8 8 8 8 8 8 8 8 8 8 8 8 8 8 8 8 8 8 8 8 8 7 7 7 7 7 7 8 8 8 8 8 8 7 7 7 8 8 9 9 9 9
12 11 11 11 11 11 10 10 10 10 9 9 9 9 9 9 9 9 9 9 9 9 9 9 9 9 8 9 8 8 8 8 8 8 8 8 8 8 8 8 7 7 8 8 8 8 8 8 8 8 8 8 8 8 8 8 8 7 8 8 8 7 7 8 8 7 7 7 7 7 8 8 8 8 8 8 8 7 7 8 8 8 8 9 8
11 11 11 11 11 11 10 10 10 10 9 9 9 9 9 9 9 9 9 9 9 9 9 9 9 9 8 8 9 8 8 8 8 8 8 8 8 8 8 8 7 7 8 8 8 8 8 8 8 8 8 8 8 8 8 8 8 7 7 8 7 7 7 7 8 8 8 7 7 7 7 8 8 8 8 8 8 8 7 7 7 8 8 8 8
11 11 11 11 11 10 10 10 10 10 10 9 9 9 9 9 9 9 9 9 9 9 9 9 9 8 8 8 8 8 8 8 8 8 8 8 8 8 8 8 8 7 8 8 8 8 8 8 8 8 8 7 8 7 7 8 8 7 7 7 7 7 7 7 7 8 8 8 8 7 8 8 8 8 8 8 8 8 8 7 7 7 7 8 8
11 11 11 11 10 10 10 10 10 10 10 10 9 9 9 9 9 9 9 9 9 9 9 9 9 8 8 8 8 8 8 8 8 8 8 8 8 8 8 8 8 8 8 8 8 8 8 8 8 7 7 7 7 7 7 7 8 7 7 7 7 7 8 8 8 8 8 8 8 8 8 8 8 8 8 8 8 8 8 8 7 7 7 7 8
11 11 11 11 10 10 10 10 10 10 10 10 9 9 9 9 9 9 9 9 9 9 9 9 9 8 8 8 8 8 8 8 8 8 8 8 8 8 8 8 8 8 8 8 8 8 8 7 7 7 7 7 7 8 8 8 8 8 8 8 8 8 8 8 8 8 8 8 8 8 8 8 8 8 8 8 8 8 8 7 7 7 7 8 8
11 11 11 10 10 10 10 10 10 10 10 9 9 9 9 9 9 9 9 9 9 9 9 9 9 9 8 8 8 8 8 8 8 8 8 8 8 9 9 8 8 8 8 8 8 8 7 7 7 7 7 7 7 8 8 8 8 8 8 8 8 8 8 8 8 8 8 8 8 8 8 8 8 8 8 8 8 8 8 7 7 7 7 8 8
11 11 11 10 10 10 10 10 10 10 10 9 9 9 9 9 9 9 9 9 9 9 9 9 9 9 8 8 8 8 8 8 9 8 8 8 8 9 9 9 9 8 8 8 8 7 7 7 7 7 7 7 7 8 8 8 8 8 9 9 9 9 8 8 8 8 8 8 8 8 8 8 8 8 8 8 7 7 7 7 7 7 7 8 8
11 11 11 11 10 10 10 10 10 10 10 9 9 9 9 9 9 9 9 9 9 9 9 9 9 9 9 9 9 9 9 9 9 9 8 8 9 9 9 9 9 8 8 8 7 7 7 8 8 8 8 8 8 8 8 9 9 9 9 9 9 9 9 9 8 8 8 8 9 9 9 9 9 8 8 8 8 7 7 8 8 8 8 8 8
11 11 11 11 10 10 10 10 10 10 9 9 9 9 9 9 9 9 9 9 9 9 9 9 9 9 9 9 9 9 9 9 9 9 9 9 9 9 9 8 8 8 8 8 7 7 8 8 8 8 8 8 8 8 9 9 9 9 9 9 9 9 9 9 9 9 9 9 9 9 9 9 9 9 9 9 8 7 7 8 8 8 8 8 8
12 12 11 11 10 10 10 10 10 10 9 9 9 9 9 9 9 10 10 9 9 9 9 9 9 9 9 9 9 9 9 9 9 9 9 9 9 9 8 8 8 8 8 8 8 8 8 8 8 8 8 8 8 9 9 9 9 9 9 9 9 9 9 9 9 9 9 9 9 9 9 9 9 9 9 9 8 8 7 7 8 8 8 8 9
12 12 11 11 11 11 11 10 10 10 9 9 9 9 9 10 10 10 10 10 10 10 9 9 9 9 9 9 9 9 9 8 8 8 8 8 8 9 8 8 8 8 8 8 8 8 8 8 9 8 8 8 8 9 9 9 9 9 9 9 9 9 9 9 9 9 9 9 9 9 9 9 9 9 9 9 9 8 8 7 7 8 8 8 8
12 12 11 11 11 11 11 11 10 10 10 10 10 10 10 10 10 10 10 10 10 10 9 9 9 9 9 9 9 9 9 8 8 8 8 8 8 9 8 8 8 8 8 8 8 9 9 9 9 9 9 9 9 9 9 8 8 9 9 9 9 9 9 9 9 9 9 9 9 9 9 9 9 9 9 9 9 9 8 8 8 8 8 8 8
12 12 12 11 11 11 11 11 11 11 11 10 10 10 10 10 10 10 10 10 10 9 9 9 9 9 9 9 9 9 8 8 8 8 8 9 8 8 8 8 8 8 8 8 9 9 10 10 10 10 10 10 9 9 9 8 8 8 8 8 8 9 9 9 9 9 9 9 9 9 9 9 9 9 9 9 9 9 9 8 8 8 8 8 8
12 12 12 12 11 11 11 11 11 11 11 11 10 10 10 10 10 10 9 10 10 9 9 9 9 9 9 9 9 9 8 8 8 8 9 9 8 8 8 8 8 9 9 9 9 10 10 10 10 10 10 10 10 10 9 9 8 8 8 8 8 8 8 8 8 9 9 9 9 9 9 9 9 9 9 9 9 9 9 9 8 8 8 8 8
12 12 11 12 12 12 11 11 11 11 11 10 10 10 10 10 10 9 9 9 9 9 9 9 9 9 9 8 9 8 8 8 9 9 9 8 8 9 9 9 9 9 9 10 10 10 11 11 11 10 11 11 10 10 10 9 9 8 8 8 8 8 8 8 8 9 9 9 9 9 9 9 9 9 9 9 9 9 9 9 9 8 8 8 8
12 12 12 12 12 11 11 11 11 11 11 10 10 10 10 10 10 9 10 9 9 9 9 9 9 9 9 9 9 9 8 8 9 9 9 8 9 9 10 10 10 10 10 10 11 11 11 11 11 11 10 10 10 10 10 9 9 8 7 7 8 9 8 8 8 9 9 9 9 9 9 9 9 9 9 9 8 8 9 9 9 9 8 8 8
12 12 12 12 11 11 11 11 10 10 10 10 10 10 10 10 10 10 10 10 10 10 9 9 10 10 10 10 9 9 9 9 10 10 9 9 10 10 10 10 10 10 11 11 11 11 11 11 11 10 10 10 10 10 10 9 9 9 8 7 8 8 8 8 9 9 9 8 8 8 8 8 8 8 8 8 8 8 8 8 8 8 8 8 8
12 12 12 11 11 11 11 11 11 10 10 10 10 10 10 10 11 11 10 10 10 10 10 10 10 10 10 10 10 9 10 10 10 10 10 10 10 10 11 11 11 11 11 11 11 10 10 10 10 10 10 10 10 10 9 9 9 9 8 8 8 8 8 8 8 8 8 8 8 8 8 8 8 8 8 8 8 8 8 8 8 8 8 8 8
12 12 12 12 11 11 11 11 11 10 10 10 10 10 11 11 11 11 11 11 11 11 10 11 11 11 11 10 10 10 10 11 11 10 10 10 10 10 10 10 10 10 10 10 10 10 10 10 10 10 9 9 9 9 9 9 9 9 9 9 8 8 8 8 8 7 7 7 7 7 7 7 7 7 7 7 7 7 7 7 7 7 7 7 8
12 12 12 12 11 11 11 11 11 11 11 11 11 11 11 11 11 11 11 11 11 11 11 11 11 11 11 10 11 11 11 11 11 11 10 10 10 10 10 10 10 10 10 10 10 10 10 9 9 9 9 9 9 9 9 9 9 9 9 9 8 8 8 7 7 6 6 6 6 6 6 6 7 7 7 6 6 6 6 7 7 7 7 7 7
12 12 12 12 11 11 11 11 11 11 11 11 11 11 11 11 11 11 11 11 11 11 11 10 10 10 10 10 10 10 10 10 10 10 10 10 11 11 11 11 10 10 10 10 10 9 9 9 9 9 9 9 9 9 9 9 9 9 9 8 8 8 7 7 6 6 6 6 5 5 5 6 6 6 6 6 6 6 6 6 6 6 6 6 7
12 12 12 12 12 12 12 12 12 12 12 12 11 12 12 12 11 11 11 11 11 11 10 10 10 10 10 10 10 10 10 10 10 10 10 10 11 11 11 11 11 10 10 10 10 10 10 9 9 9 9 9 9 9 9 9 9 8 8 8 8 7 7 6 6 6 6 6 5 5 5 6 6 6 6 6 6 6 6 6 6 6 6 6 6
12 12 12 12 12 12 12 12 12 12 12 12 12 12 12 11 11 11 11 11 11 10 10 10 10 10 10 10 10 10 10 10 10 10 10 10 10 11 10 10 10 10 10 10 10 9 9 9 9 9 9 9 9 9 9 8 8 8 8 8 7 7 7 6 6 6 6 6 6 5 5 5 5 6 6 6 6 6 6 6 6 6 6 6 6
12 12 12 12 12 13 13 13 12 12 12 12 12 12 11 11 11 11 11 11 11 11 11 10 10 10 10 10 10 10 10 10 10 10 10 10 10 10 10 10 10 10 10 10 10 9 9 9 9 9 8 8 8 8 8 8 8 8 8 7 7 7 7 6 6 6 6 6 6 6 5 5 5 5 6 6 6 7 7 7 6 6 6 6 6
12 12 12 12 13 13 13 13 13 13 12 12 12 12 12 12 11 11 11 11 11 11 11 11 11 10 10 10 10 10 10 10 10 10 10 10 10 10 10 10 10 10 10 10 10 9 9 9 9 9 8 8 8 8 7 7 7 7 7 7 7 6 6 6 6 6 6 6 6 6 6 6 5 5 5 5 5 6 6 6 7 7 6 6 6
13 13 13 13 13 13 13 13 13 13 13 13 12 12 12 12 12 12 11 11 11 11 11 11 11 10 10 10 10 10 10 10 10 10 10 10 10 10 10 10 10 10 10 10 10 9 9 9 9 9 8 8 8 8 7 7 7 7 7 7 7 7 6 6 6 6 6 6 6 6 6 6 6 5 5 5 5 5 5 6 6 6 6 6 6
Height
3192 3192 3193 3194 3195 3196 3197 3197 3198 3200 3201 3203 3204 3205 3205 3206 3208 3209 3210 3211 3212 3214 3215 3215 3217 3218 3218 3219 3221 3222 3223 3225 3226 3227 3227 3228 3228 3228 3227 3227 3227 3227 3227 3227 3227 3227 3226 3226 3226 3226 3226 3225 3224 3224 3223 3223 3222 3222 3221 3220 3221 3222 3222 3222 3222 3221 3219 3218 3218 3217 3216 3215 3214 3213 3212 3211 3210 3210 3210 3209 3209 3209 3210 3210 3210
3193 3193 3195 3196 3197 3197 3198 3198 3199 3200 3202 3204 3205 3206 3207 3208 3210 3211 3212 3213 3214 3215 3216 3217 3218 3219 3220 3221 3222 3223 3225 3226 3227 3228 3228 3228 3228 3228 3228 3228 3228 3228 3228 3228 3228 3227 3227 3227 3227 3226 3226 3225 3225 3224 3224 3223 3223 3223 3222 3221 3221 3222 3222 3222 3222 3221 3219 3218 3218 3217 3216 3215 3214 3214 3213 3212 3212 3212 3211 3210 3210 3210 3210 3211 3211
3194 3195 3196 3197 3197 3198 3198 3199 3200 3202 3203 3205 3206 3207 3208 3210 3211 3212 3213 3214 3215 3216 3217 3218 3219 3221 3222 3222 3223 3224 3226 3227 3228 3229 3229 3229 3229 3229 3229 3229 3229 3229 3229 3229 3229 3228 3227 3227 3227 3226 3226 3226 3225 3225 3225 3225 3224 3224 3224 3223 3223 3222 3222 3222 3221 3221 3219 3218 3218 3217 3216 3215 3215 3215 3214 3213 3213 3213 3212 3211 3211 3211 3211 3211 3212
3195 3195 3196 3197 3198 3198 3199 3199 3201 3203 3204 3206 3207 3208 3209 3211 3212 3214 3215 3216 3217 3218 3219 3220 3221 3222 3223 3224 3224 3225 3226 3227 3228 3229 3229 3229 3230 3230 3230 3230 3230 3230 3230 3230 3229 3228 3228 3227 3226 3226 3226 3226 3226 3225 3226 3226 3226 3226 3225 3225 3224 3224 3223 3223 3222 3221 3220 3218 3218 3217 3216 3216 3216 3216 3215 3214 3214 3214 3213 3212 3212 3212 3212 3212 3212
3195 3196 3197 3198 3199 3200 3200 3201 3202 3204 3206 3208 3209 3210 3211 3212 3214 3215 3217 3218 3219 3220 3220 3221 3222 3223 3224 3225 3225 3226 3227 3228 3228 3229 3229 3230 3230 3230 3230 3230 3230 3230 3230 3230 3229 3229 3228 3227 3227 3227 3227 3227 3226 3226 3226 3226 3225 3225 3225 3225 3224 3224 3224 3224 3223 3223 3221 3219 3218 3217 3217 3216 3216 3216 3216 3215 3214 3214 3214 3214 3213 3213 3213 3213 3213
3197 3197 3198 3199 3200 3201 3202 3203 3204 3206 3207 3209 3210 3211 3212 3214 3215 3217 3218 3219 3220 3221 3221 3222 3223 3224 3225 3226 3226 3227 3227 3228 3229 3229 3230 3230 3230 3231 3231 3231 3231 3230 3230 3230 3230 3229 3228 3228 3228 3228 3227 3227 3226 3227 3226 3225 3224 3224 3224 3224 3224 3223 3224 3224 3223 3223 3222 3221 3219 3218 3218 3217 3217 3217 3217 3216 3215 3215 3215 3215 3215 3215 3215 3214 3214
3198 3198 3199 3201 3202 3203 3203 3204 3206 3207 3208 3209 3211 3212 3214 3216 3217 3218 3219 3220 3221 3222 3223 3223 3224 3225 3226 3227 3227 3228 3228 3229 3229 3230 3230 3230 3231 3231 3231 3231 3231 3230 3230 3230 3230 3230 3229 3229 3228 3228 3228 3227 3227 3227 3226 3225 3224 3224 3224 3223 3223 3223 3223 3223 3223 3222 3223 3222 3221 3219 3218 3218 3217 3217 3217 3217 3216 3216 3216 3216 3216 3216 3216 3216 3215
3200 3200 3200 3202 3203 3204 3205 3205 3207 3208 3208 3210 3212 3214 3215 3217 3218 3220 3220 3221 3222 3222 3223 3224 3225 3225 3226 3227 3228 3228 3228 3229 3230 3230 3231 3231 3231 3231 3231 3231 3231 3231 3230 3230 3230 3230 3230 3229 3229 3228 3228 3227 3227 3226 3225 3225 3224 3224 3223 3222 3222 3222 3222 3222 3222 3222 3222 3223 3222 3221 3219 3218 3217 3217 3218 3217 3217 3217 3217 3216 3216 3216 3217 3217 3217
3201 3202 3202 3203 3205 3205 3206 3207 3208 3209 3209 3211 3213 3215 3216 3218 3219 3221 3222 3222 3223 3223 3224 3224 3225 3226 3227 3227 3228 3228 3229 3229 3230 3230 3231 3231 3231 3231 3231 3231 3231 3231 3231 3230 3230 3230 3229 3229 3229 3228 3228 3228 3227 3226 3226 3225 3224 3223 3223 3222 3221 3221 3221 3222 3222 3222 3222 3223 3223 3222 3221 3219 3218 3218 3218 3218 3217 3217 3217 3217 3217 3217 3217 3218 3218
3203 3203 3204 3205 3206 3207 3207 3208 3209 3210 3211 3212 3214 3216 3217 3219 3220 3221 3222 3223 3224 3224 3224 3225 3226 3226 3227 3228 3228 3229 3229 3230 3230 3230 3231 3231 3231 3231 3232 3232 3232 3232 3231 3230 3230 3230 3229 3228 3228 3228 3228 3228 3228 3227 3226 3226 3225 3224 3223 3222 3221 3221 3220 3220 3221 3222 3222 3222 3223 3222 3221 3220 3219 3218 3218 3218 3217 3217 3217 3217 3217 3217 3218 3218 3218
3204 3205 3206 3206 3207 3208 3209 3209 3211 3212 3213 3214 3215 3217 3218 3219 3221 3222 3223 3223 3224 3224 3225 3226 3226 3227 3228 3228 3229 3229 3230 3230 3230 3231 3231 3231 3232 3232 3233 3233 3233 3232 3231 3230 3230 3230 3228 3227 3227 3228 3228 3229 3229 3228 3227 3226 3226 3225 3224 3223 3222 3221 3220 3220 3221 3221 3222 3222 3222 3222 3222 3221 3219 3219 3218 3218 3218 3218 3217 3217 3218 3218 3218 3218 3218
3206 3207 3208 3208 3209 3209 3210 3211 3212 3213 3214 3215 3217 3218 3219 3220 3221 3222 3223 3223 3224 3224 3225 3226 3227 3227 3228 3229 3229 3230 3230 3231 3231 3231 3232 3232 3232 3233 3233 3233 3233 3232 3231 3230 3229 3227 3227 3227 3228 3229 3229 3229 3229 3229 3228 3227 3226 3226 3226 3224 3223 3222 3221 3221 3221 3221 3222 3222 3222 3222 3222 3221 3220 3220 3219 3218 3218 3218 3218 3218 3218 3218 3218 3218 3218
3207 3208 3210 3210 3211 3211 3211 3212 3214 3215 3216 3216 3217 3219 3219 3220 3222 3222 3223 3223 3224 3225 3226 3227 3227 3228 3228 3229 3230 3230 3231 3231 3231 3232 3232 3232 3233 3233 3233 3233 3233 3232 3231 3229 3226 3227 3229 3230 3230 3231 3230 3229 3229 3229 3228 3227 3227 3227 3226 3225 3224 3223 3222 3222 3222 3222 3222 3221 3222 3222 3221 3221 3221 3220 3220 3219 3219 3219 3218 3219 3219 3218 3218 3218 3218
3208 3209 3211 3212 3212 3213 3213 3214 3215 3216 3217 3217 3218 3219 3220 3221 3222 3223 3223 3224 3225 3226 3227 3227 3228 3228 3229 3230 3230 3231 3231 3231 3232 3232 3232 3232 3233 3233 3233 3233 3232 3232 3230 3227 3227 3230 3232 3232 3231 3230 3229 3229 3229 3229 3228 3228 3227 3227 3226 3226 3225 3224 3223 3223 3223 3223 3222 3221 3222 3221 3221 3221 3221 3221 3221 3220 3220 3220 3219 3219 3219 3219 3219 3218 3219
3209 3210 3211 3212 3213 3214 3215 3216 3216 3217 3217 3217 3218 3220 3221 3222 3223 3223 3224 3225 3225 3226 3227 3228 3228 3229 3230 3230 3231 3231 3232 3232 3232 3232 3232 3233 3233 3233 3233 3232 3232 3231 3228 3227 3231 3233 3232 3232 3231 3230 3229 3229 3229 3229 3229 3229 3228 3227 3226 3225 3226 3226 3225 3224 3223 3223 3223 3222 3222 3221 3221 3221 3221 3221 3221 3221 3221 3220 3220 3219 3219 3219 3219 3219 3219
3210 3211 3212 3212 3214 3215 3216 3217 3217 3218 3217 3218 3219 3221 3222 3223 3223 3224 3225 3225 3226 3227 3227 3228 3229 3230 3230 3231 3231 3232 3232 3232 3232 3233 3233 3233 3233 3233 3233 3232 3232 3230 3227 3230 3234 3233 3233 3233 3231 3230 3229 3229 3230 3230 3230 3229 3228 3228 3226 3225 3226 3226 3226 3225 3224 3223 3223 3222 3222 3221 3221 3221 3221 3221 3221 3221 3221 3221 3220 3220 3219 3219 3219 3219 3219
3211 3212 3212 3213 3214 3215 3216 3217 3218 3218 3218 3220 3221 3222 3223 3223 3224 3225 3225 3226 3226 3227 3228 3229 3230 3230 3231 3231 3232 3232 3232 3233 3233 3233 3233 3233 3233 3233 3233 3232 3232 3230 3228 3233 3234 3234 3234 3233 3232 3231 3229 3229 3231 3231 3230 3229 3229 3228 3227 3225 3226 3226 3226 3225 3224 3223 3223 3223 3222 3222 3222 3222 3221 3221 3222 3221 3221 3221 3221 3220 3220 3220 3219 3219 3220
3212 3212 3213 3214 3214 3216 3217 3217 3218 3219 3220 3221 3222 3223 3223 3224 3224 3225 3226 3226 3227 3228 3229 3230 3230 3231 3231 3232 3232 3232 3232 3233 3233 3233 3233 3233 3233 3233 3233 3232 3232 3231 3231 3233 3234 3234 3233 3232 3232 3231 3229 3229 3230 3231 3230 3229 3229 3228 3227 3226 3225 3226 3226 3224 3223 3223 3222 3222 3222 3222 3222 3222 3222 3221 3222 3222 3221 3221 3221 3221 3220 3220 3220 3220 3220
3212 3213 3214 3215 3215 3216 3217 3218 3220 3220 3221 3222 3223 3223 3224 3224 3225 3225 3226 3227 3228 3229 3229 3230 3231 3231 3231 3232 3232 3232 3232 3233 3233 3233 3233 3233 3233 3232 3232 3232 3233 3232 3232 3233 3234 3233 3232 3232 3231 3230 3230 3228 3228 3230 3230 3230 3229 3228 3227 3227 3226 3225 3225 3223 3221 3221 3222 3221 3222 3222 3222 3222 3222 3222 3222 3222 3222 3221 3222 3222 3221 3220 3220 3220 3220
3212 3213 3214 3215 3216 3217 3217 3218 3219 3220 3221 3221 3222 3222 3223 3224 3225 3226 3227 3227 3228 3229 3230 3230 3230 3231 3231 3231 3232 3232 3232 3233 3233 3233 3233 3233 3233 3233 3233 3233 3233 3233 3232 3233 3234 3233 3232 3231 3230 3230 3229 3228 3228 3229 3230 3230 3229 3229 3228 3227 3226 3225 3224 3224 3222 3221 3222 3222 3222 3222 3222 3222 3222 3222 3222 3222 3222 3222 3222 3222 3221 3220 3220 3220 3220
3212 3213 3214 3215 3216 3217 3217 3218 3219 3219 3220 3221 3221 3222 3223 3224 3225 3226 3227 3228 3229 3229 3230 3230 3230 3231 3231 3232 3232 3232 3232 3233 3233 3233 3233 3233 3233 3233 3233 3233 3233 3233 3233 3233 3234 3233 3231 3231 3230 3229 3228 3228 3228 3229 3229 3229 3228 3228 3228 3228 3226 3225 3224 3224 3223 3222 3222 3222 3222 3222 3222 3222 3222 3222 3222 3222 3222 3222 3222 3222 3221 3221 3220 3220 3220
3212 3213 3214 3215 3216 3217 3217 3218 3219 3219 3221 3221 3222 3223 3224 3225 3225 3226 3227 3228 3228 3229 3229 3230 3231 3231 3232 3232 3232 3232 3232 3232 3233 3233 3233 3234 3234 3233 3233 3233 3233 3233 3233 3233 3233 3232 3231 3230 3229 3229 3228 3228 3228 3228 3228 3228 3228 3228 3228 3227 3226 3225 3224 3223 3223 3223 3223 3223 3222 3222 3222 3222 3222 3221 3221 3222 3222 3222 3222 3222 3221 3221 3220 3220 3220
3213 3214 3214 3215 3216 3217 3217 3218 3219 3220 3221 3222 3223 3224 3225 3225 3226 3226 3227 3227 3228 3229 3229 3230 3231 3232 3232 3232 3233 3233 3233 3233 3233 3233 3233 3234 3234 3234 3233 3233 3233 3233 3232 3232 3232 3232 3231 3230 3230 3229 3229 3228 3228 3228 3228 3228 3227 3227 3227 3226 3226 3225 3224 3224 3223 3223 3223 3223 3223 3222 3222 3222 3222 3221 3221 3221 3221 3222 3222 3222 3222 3221 3221 3220 3220
3213 3214 3215 3215 3216 3217 3217 3218 3219 3220 3221 3222 3223 3224 3225 3226 3226 3227 3227 3227 3228 3229 3229 3230 3231 3231 3232 3232 3233 3233 3233 3233 3233 3233 3233 3233 3234 3234 3233 3233 3233 3232 3232 3231 3231 3231 3231 3230 3230 3230 3229 3228 3228 3227 3227 3227 3226 3226 3225 3225 3225 3224 3224 3224 3223 3223 3223 3223 3223 3222 3222 3222 3221 3221 3221 3221 3220 3221 3221 3222 3222 3221 3221 3221 3220
3214 3214 3215 3216 3216 3217 3218 3219 3220 3220 3221 3222 3223 3224 3225 3225 3226 3226 3227 3228 3228 3229 3229 3230 3230 3231 3232 3232 3233 3233 3233 3233 3233 3233 3233 3233 3233 3233 3233 3233 3233 3232 3232 3231 3231 3230 3230 3230 3230 3229 3229 3228 3228 3227 3226 3225 3225 3224 3224 3223 3223 3223 3223 3223 3223 3222 3222 3222 3222 3222 3221 3221 3221 3220 3220 3220 3220 3220 3220 3221 3221 3221 3221 3221 3221
3214 3215 3215 3216 3217 3218 3218 3219 3220 3221 3221 3222 3223 3224 3225 3225 3226 3227 3227 3228 3228 3229 3229 3230 3230 3231 3231 3232 3232 3233 3233 3233 3233 3233 3233 3233 3232 3232 3232 3232 3232 3232 3231 3231 3230 3230 3230 3229 3229 3228 3228 3227 3226 3226 3225 3224 3223 3222 3222 3221 3221 3221 3221 3221 3221 3221 3221 3221 3221 3221 3220 3220 3220 3219 3219 3220 3219 3219 3220 3220 3220 3221 3221 3221 3221
3214 3215 3216 3217 3217 3218 3219 3219 3220 3221 3222 3222 3223 3224 3225 3226 3226 3227 3227 3228 3228 3228 3229 3230 3230 3231 3231 3232 3232 3232 3232 3232 3232 3232 3232 3232 3232 3232 3231 3231 3231 3231 3231 3230 3230 3229 3229 3228 3228 3227 3226 3226 3225 3224 3223 3222 3221 3220 3220 3219 3219 3219 3219 3219 3219 3219 3219 3219 3219 3219 3219 3218 3218 3218 3218 3218 3218 3219 3219 3219 3220 3220 3220 3220 3220
3214 3215 3216 3217 3218 3218 3219 3219 3220 3221 3222 3222 3223 3224 3225 3225 3226 3226 3227 3227 3228 3228 3229 3230 3230 3231 3231 3231 3231 3232 3232 3232 3231 3231 3231 3231 3231 3231 3231 3231 3230 3230 3230 3230 3229 3229 3228 3228 3227 3226 3225 3224 3223 3222 3221 3220 3219 3219 3218 3217 3217 3216 3216 3216 3216 3217 3217 3217 3217 3217 3217 3217 3217 3217 3217 3217 3217 3218 3218 3218 3219 3219 3219 3219 3220
3214 3215 3216 3217 3217 3218 3218 3219 3220 3221 3222 3222 3223 3224 3224 3225 3225 3226 3226 3227 3227 3228 3228 3229 3230 3230 3231 3231 3231 3231 3231 3231 3230 3230 3230 3230 3230 3230 3230 3230 3230 3229 3229 3229 3229 3228 3228 3227 3226 3225 3224 3223 3222 3221 3220 3219 3218 3217 3216 3215 3214 3214 3214 3213 3214 3214 3214 3214 3215 3215 3215 3215 3215 3215 3215 3215 3216 3217 3217 3217 3217 3218 3218 3219 3219
3214 3214 3215 3216 3217 3218 3218 3219 3220 3221 3222 3222 3223 3223 3224 3224 3225 3225 3225 3226 3226 3227 3228 3229 3229 3229 3230 3230 3230 3230 3230 3230 3229 3229 3229 3229 3229 3229 3229 3229 3229 3229 3228 3228 3228 3227 3227 3226 3225 3224 3223 3222 3220 3219 3218 3217 3216 3215 3214 3213 3212 3211 3211 3211 3211 3211 3211 3212 3213 3213 3213 3213 3213 3213 3213 3214 3215 3215 3215 3215 3216 3216 3217 3218 3219
3213 3214 3215 3216 3216 3217 3218 3219 3219 3220 3221 3222 3222 3223 3223 3224 3224 3224 3225 3225 3226 3226 3227 3228 3228 3228 3229 3229 3229 3229 3229 3228 3228 3228 3228 3228 3228 3229 3229 3228 3228 3228 3227 3227 3227 3227 3226 3225 3224 3223 3222 3221 3219 3218 3217 3216 3214 3213 3212 3211 3210 3209 3209 3208 3208 3208 3209 3209 3210 3211 3211 3211 3211 3211 3212 3212 3213 3213 3214 3214 3215 3216 3216 3217 3218
3213 3214 3214 3215 3216 3217 3217 3218 3219 3219 3220 3221 3222 3222 3222 3223 3223 3223 3224 3224 3225 3226 3226 3227 3227 3227 3227 3227 3227 3227 3227 3227 3227 3227 3227 3227 3227 3227 3227 3227 3227 3227 3226 3226 3226 3225 3224 3223 3222 3221 3220 3219 3218 3217 3215 3214 3213 3211 3210 3209 3208 3208 3207 3206 3206 3206 3207 3207 3208 3208 3209 3209 3210 3210 3210 3211 3211 3212 3212 3213 3213 3214 3215 3216 3217
3212 3213 3213 3214 3215 3216 3216 3217 3218 3218 3219 3220 3221 3221 3222 3222 3222 3223 3223 3223 3224 3225 3225 3225 3226 3226 3226 3226 3226 3226 3226 3226 3226 3226 3226 3226 3226 3226 3226 3226 3226 3225 3225 3224 3224 3223 3223 3222 3221 3220 3219 3217 3216 3215 3214 3212 3211 3210 3209 3208 3207 3206 3205 3205 3205 3204 3205 3205 3206 3206 3207 3207 3208 3208 3209 3210 3210 3210 3211 3211 3212 3212 3213 3214 3216
3211 3211 3212 3213 3214 3215 3215 3216 3217 3218 3219 3219 3220 3220 3221 3221 3222 3222 3222 3222 3223 3224 3224 3224 3224 3225 3225 3225 3225 3225 3224 3224 3224 3225 3225 3225 3225 3225 3224 3224 3224 3224 3223 3223 3222 3222 3221 3220 3219 3218 3217 3216 3214 3213 3212 3211 3210 3209 3208 3207 3206 3205 3204 3204 3203 3203 3203 3204 3204 3205 3205 3206 3206 3207 3208 3209 3209 3209 3209 3210 3210 3211 3211 3212 3214
3210 3211 3212 3212 3213 3214 3215 3215 3216 3217 3217 3218 3219 3219 3220 3220 3221 3221 3221 3222 3222 3222 3222 3223 3223 3223 3224 3224 3224 3223 3223 3223 3223 3223 3224 3224 3224 3223 3223 3222 3222 3222 3221 3221 3220 3220 3219 3218 3217 3216 3215 3214 3213 3212 3211 3210 3208 3208 3207 3206 3205 3204 3203 3202 3202 3202 3202 3203 3203 3203 3204 3204 3205 3205 3207 3207 3208 3208 3208 3208 3209 3209 3210 3211 3212
3209 3210 3211 3211 3212 3213 3214 3214 3215 3216 3216 3217 3217 3218 3218 3219 3220 3220 3220 3221 3221 3221 3221 3221 3222 3222 3222 3222 3222 3222 3222 3222 3222 3222 3222 3222 3222 3222 3221 3220 3220 3220 3219 3218 3218 3217 3217 3216 3215 3214 3213 3212 3211 3210 3210 3209 3207 3206 3206 3205 3203 3203 3202 3202 3201 3202 3202 3202 3202 3202 3202 3202 3203 3203 3205 3206 3206 3207 3207 3207 3207 3208 3208 3209 3210
3208 3209 3209 3210 3211 3212 3213 3213 3214 3214 3215 3215 3216 3216 3217 3218 3218 3218 3219 3219 3220 3220 3220 3220 3220 3221 3221 3221 3221 3221 3221 3221 3221 3221 3221 3221 3220 3220 3220 3219 3218 3218 3217 3216 3216 3215 3214 3213 3213 3212 3211 3210 3209 3209 3208 3207 3206 3205 3204 3203 3202 3201 3201 3201 3200 3201 3201 3201 3200 3200 3200 3200 3201 3201 3202 3204 3204 3205 3205 3205 3205 3206 3206 3207 3208
3207 3208 3208 3209 3210 3211 3212 3212 3213 3213 3213 3214 3214 3215 3215 3216 3216 3217 3217 3217 3218 3218 3218 3218 3219 3219 3219 3219 3219 3219 3219 3219 3219 3220 3219 3219 3218 3218 3218 3217 3217 3216 3215 3214 3214 3213 3212 3212 3211 3210 3209 3209 3208 3207 3207 3206 3205 3204 3203 3202 3201 3200 3200 3200 3200 3200 3199 3199 3199 3199 3199 3199 3199 3199 3200 3201 3202 3202 3202 3203 3203 3204 3205 3206 3207
3206 3206 3207 3208 3208 3209 3210 3211 3211 3212 3212 3212 3213 3213 3214 3214 3215 3215 3216 3216 3216 3216 3217 3217 3217 3217 3217 3218 3218 3218 3218 3217 3218 3218 3217 3217 3216 3215 3216 3215 3214 3214 3213 3212 3211 3210 3210 3209 3209 3208 3207 3207 3206 3206 3206 3205 3204 3203 3202 3201 3200 3199 3199 3199 3199 3199 3198 3197 3197 3197 3197 3197 3197 3198 3198 3198 3199 3200 3200 3200 3201 3202 3203 3204 3205
3204 3205 3205 3206 3207 3208 3208 3209 3210 3210 3210 3211 3211 3212 3212 3213 3213 3214 3214 3214 3214 3215 3215 3215 3215 3215 3216 3216 3216 3216 3215 3215 3216 3216 3216 3214 3214 3214 3214 3213 3212 3211 3211 3210 3209 3208 3208 3207 3207 3206 3205 3205 3205 3205 3205 3204 3203 3202 3200 3200 3199 3199 3199 3199 3198 3198 3197 3196 3195 3195 3195 3195 3196 3196 3196 3196 3197 3197 3198 3198 3199 3200 3201 3202 3203
3203 3203 3204 3205 3206 3206 3207 3207 3208 3208 3208 3209 3210 3210 3211 3211 3212 3212 3213 3213 3213 3213 3213 3213 3213 3214 3214 3214 3214 3214 3214 3214 3214 3214 3213 3213 3212 3212 3211 3210 3210 3209 3209 3208 3207 3206 3206 3205 3205 3204 3204 3204 3204 3204 3204 3203 3202 3201 3199 3198 3198 3198 3198 3197 3197 3196 3196 3195 3194 3194 3193 3193 3194 3194 3194 3194 3194 3195 3196 3196 3197 3198 3198 3199 3201
3202 3203 3203 3204 3204 3204 3205 3206 3206 3206 3207 3208 3208 3209 3209 3210 3211 3211 3211 3212 3212 3212 3212 3212 3212 3212 3212 3212 3212 3213 3213 3213 3212 3212 3212 3211 3211 3210 3209 3209 3208 3207 3207 3206 3206 3205 3205 3204 3203 3203 3202 3202 3202 3202 3202 3202 3201 3200 3199 3197 3196 3196 3196 3196 3195 3195 3194 3194 3193 3193 3192 3192 3192 3192 3192 3193 3193 3193 3193 3194 3195 3196 3196 3197 3198
3201 3202 3202 3202 3202 3203 3203 3204 3204 3205 3205 3206 3207 3208 3208 3208 3209 3209 3210 3211 3211 3210 3210 3210 3211 3211 3211 3211 3211 3212 3212 3211 3211 3211 3210 3210 3209 3208 3208 3207 3206 3206 3205 3205 3204 3204 3204 3203 3202 3201 3200 3200 3200 3200 3200 3200 3199 3199 3198 3197 3195 3194 3194 3194 3194 3193 3193 3192 3192 3191 3191 3191 3191 3191 3191 3191 3191 3191 3191 3192 3192 3193 3194 3194 3195
3199 3200 3200 3200 3201 3201 3202 3203 3203 3204 3204 3205 3205 3206 3206 3207 3207 3208 3208 3209 3209 3209 3209 3210 3210 3210 3210 3211 3211 3211 3211 3211 3210 3210 3209 3208 3207 3207 3206 3206 3205 3205 3204 3203 3203 3202 3202 3201 3200 3199 3199 3198 3198 3198 3198 3198 3197 3197 3197 3196 3195 3194 3193 3192 3191 3192 3191 3191 3191 3190 3190 3189 3189 3189 3189 3189 3189 3189 3189 3189 3190 3190 3191 3192 3192
3197 3199 3199 3200 3200 3200 3201 3201 3202 3202 3203 3203 3204 3204 3205 3205 3206 3206 3207 3208 3208 3208 3209 3209 3209 3209 3210 3210 3210 3210 3210 3210 3209 3209 3208 3207 3206 3206 3205 3205 3204 3203 3203 3202 3201 3200 3199 3199 3199 3198 3197 3197 3197 3196 3196 3196 3195 3195 3195 3195 3194 3194 3193 3191 3191 3190 3190 3189 3189 3189 3189 3188 3188 3187 3187 3188 3188 3188 3188 3188 3188 3188 3188 3189 3190
3196 3197 3198 3199 3199 3199 3199 3200 3200 3201 3202 3202 3203 3203 3204 3204 3205 3205 3206 3207 3208 3208 3209 3209 3209 3209 3209 3209 3209 3209 3209 3209 3208 3208 3207 3206 3206 3205 3205 3204 3203 3202 3201 3200 3199 3198 3197 3197 3197 3197 3196 3195 3195 3194 3194 3194 3193 3193 3193 3193 3193 3192 3192 3191 3191 3190 3189 3188 3188 3188 3188 3187 3187 3186 3186 3186 3186 3186 3186 3186 3186 3186 3186 3186 3186
3195 3196 3196 3197 3197 3198 3198 3199 3199 3200 3201 3201 3202 3203 3203 3204 3204 3205 3206 3207 3207 3208 3208 3208 3208 3209 3209 3209 3209 3208 3208 3208 3208 3207 3207 3206 3206 3205 3204 3204 3203 3202 3201 3200 3199 3198 3196 3196 3196 3195 3194 3194 3193 3193 3193 3192 3192 3192 3192 3191 3191 3191 3191 3190 3190 3189 3189 3188 3187 3187 3186 3186 3185 3185 3184 3184 3183 3183 3183 3183 3183 3183 3183 3183 3184
3194 3194 3195 3195 3196 3197 3197 3198 3198 3199 3200 3200 3201 3202 3203 3203 3204 3204 3205 3206 3207 3207 3207 3207 3207 3208 3208 3208 3208 3208 3208 3208 3208 3207 3207 3206 3206 3205 3205 3204 3203 3202 3201 3200 3199 3198 3196 3196 3195 3194 3194 3193 3193 3192 3192 3191 3191 3190 3190 3190 3190 3190 3189 3189 3189 3189 3188 3188 3187 3186 3185 3184 3184 3183 3183 3182 3182 3181 3181 3181 3181 3181 3180 3180 3180
3192 3192 3193 3194 3195 3195 3196 3197 3197 3198 3199 3199 3200 3201 3202 3202 3203 3204 3205 3205 3206 3207 3207 3207 3207 3207 3208 3208 3208 3208 3208 3208 3207 3206 3206 3206 3205 3205 3204 3203 3202 3201 3200 3199 3198 3197 3196 3195 3194 3193 3192 3192 3191 3190 3190 3190 3189 3189 3189 3189 3189 3188 3188 3188 3188 3188 3188 3187 3187 3186 3184 3183 3182 3181 3181 3181 3180 3180 3179 3179 3179 3179 3178 3178 3177
3190 3191 3191 3192 3193 3193 3194 3195 3196 3197 3197 3198 3199 3200 3201 3201 3202 3203 3204 3205 3205 3206 3206 3206 3207 3207 3207 3207 3208 3208 3207 3207 3206 3206 3205 3205 3205 3204 3203 3202 3201 3200 3199 3198 3197 3196 3195 3193 3192 3192 3191 3190 3189 3189 3188 3188 3187 3187 3187 3187 3187 3187 3187 3186 3186 3186 3186 3186 3186 3185 3184 3183 3182 3181 3180 3179 3179 3178 3178 3177 3177 3177 3176 3176 3175
3187 3188 3189 3190 3191 3192 3193 3194 3195 3195 3196 3197 3198 3199 3200 3200 3201 3202 3203 3204 3205 3205 3205 3206 3206 3206 3207 3207 3207 3207 3207 3206 3206 3206 3205 3205 3204 3203 3202 3201 3200 3199 3198 3197 3195 3194 3193 3192 3191 3190 3189 3189 3188 3188 3187 3187 3186 3186 3186 3186 3186 3185 3185 3184 3184 3183 3183 3183 3183 3183 3182 3182 3182 3181 3179 3178 3177 3176 3176 3175 3175 3174 3174 3173 3173
Wind_Speed
24 24 22 19 20 21 21 21 20 22 22 22 23 23 22 21 20 20 19 18 18 18 18 19 21 21 21 21 20 20 20 20 19 17 15 14 12 11 11 11 10 11 10 10 10 10 10 10 11 11 12 13 13 13 13 13 13 12 8 7 7 8 8 9 11 15 19 19 20 20 19 18 16 14 13 11 8 6 5 3 3 3 3 4 5
27 26 22 22 23 23 21 21 20 22 22 23 24 23 22 21 20 19 18 17 18 18 18 19 20 21 21 21 20 19 20 20 18 16 14 13 11 10 10 9 9 9 8 8 8 8 8 9 10 11 12 12 12 12 12 13 13 12 9 7 6 6 6 7 9 13 18 19 20 20 20 20 18 17 16 14 12 10 9 8 8 9 9 8 8
27 24 23 24 23 22 21 21 21 21 23 24 24 23 22 21 20 20 18 18 18 18 19 19 20 20 20 20 19 18 18 18 17 15 13 11 10 9 9 8 7 7 6 6 6 7 7 8 9 10 11 11 11 11 12 13 13 13 11 8 6 5 5 6 7 10 15 19 20 21 21 19 18 17 16 15 14 13 11 10 11 12 12 10 9
27 25 25 23 22 23 23 22 22 22 23 24 24 23 22 21 20 20 19 19 19 19 19 19 19 19 19 19 18 17 16 16 15 13 12 10 9 8 8 7 6 5 5 5 5 6 7 7 8 9 10 10 10 11 12 13 13 12 11 10 8 6 6 6 7 8 11 17 19 21 20 17 16 15 15 15 15 15 13 11 12 11 11 11 10
28 26 25 23 22 23 23 22 22 23 24 24 23 22 21 21 20 19 19 19 19 19 19 19 19 18 18 17 17 16 15 14 13 12 10 9 8 7 6 5 4 3 4 4 5 6 7 7 8 9 9 9 10 10 11 11 11 9 8 9 9 8 8 8 9 10 11 14 17 19 19 17 14 13 13 14 15 16 16 13 12 11 10 11 12
27 26 24 24 23 22 22 23 23 23 23 23 22 21 21 20 19 18 19 18 18 19 18 18 18 18 17 17 16 16 15 13 12 11 9 8 7 6 5 4 3 2 3 4 5 6 6 7 8 8 8 9 9 10 10 9 10 9 8 8 9 8 7 9 10 11 11 12 14 16 17 16 13 12 12 12 13 14 15 14 13 11 10 10 12
26 25 24 23 23 23 22 22 23 22 22 21 20 20 20 19 18 17 17 16 17 17 17 17 17 17 16 16 16 15 15 14 12 11 10 9 7 6 6 5 4 3 3 3 5 5 6 6 7 7 8 9 9 10 9 9 10 10 9 8 8 8 7 8 9 9 10 10 12 14 16 15 14 13 11 10 11 12 13 14 13 12 11 10 10
27 25 24 23 23 23 22 22 22 22 22 20 19 18 18 18 17 16 15 14 15 15 15 15 15 15 15 14 14 14 14 14 13 12 11 10 9 8 7 6 5 3 2 3 4 5 5 5 6 7 8 9 8 9 9 9 10 10 10 8 8 8 7 6 7 8 7 9 10 12 14 15 13 12 10 9 9 9 11 12 12 12 10 10 9
28 26 24 24 24 23 22 22 22 22 22 21 20 18 18 17 16 15 14 14 14 14 14 14 14 14 14 13 13 13 14 14 13 13 12 10 9 8 6 5 4 3 2 2 4 5 5 6 6 6 8 9 9 8 9 10 9 9 9 8 7 7 7 5 5 7 6 7 9 11 13 14 13 11 10 9 8 7 8 10 11 11 10 9 8
28 26 24 24 24 23 22 22 22 22 21 21 20 19 18 17 16 15 15 14 13 13 13 13 13 13 14 14 13 13 13 13 13 12 11 9 8 7 6 4 3 2 2 4 4 5 6 7 6 6 6 8 9 9 9 10 10 9 8 7 6 6 6 6 5 6 7 6 8 10 13 14 14 11 10 9 8 8 7 8 8 9 9 8 7
27 26 24 24 24 23 22 22 22 21 20 19 19 18 18 17 15 15 14 14 13 13 12 13 13 14 14 13 13 13 12 12 11 10 9 8 7 5 4 3 3 3 4 5 6 6 7 7 5 5 6 6 7 8 8 9 10 10 9 8 6 6 5 6 6 6 7 7 7 10 12 14 14 12 11 10 8 8 7 6 6 7 8 8 7
25 26 25 24 24 24 22 22 21 20 19 18 18 17 17 16 15 14 14 13 13 13 12 13 13 14 13 13 12 12 11 10 10 8 7 6 5 4 2 2 2 3 4 6 7 7 7 7 6 6 7 6 6 6 6 8 10 10 10 8 7 6 5 6 6 6 7 7 8 10 11 13 14 13 13 11 9 8 6 4 4 6 6 7 7
22 24 24 24 25 23 21 21 20 19 19 18 18 17 16 15 14 14 14 13 13 13 13 13 13 13 13 12 12 11 10 9 8 7 6 5 3 2 1 2 3 3 4 6 8 8 7 9 10 8 7 7 8 7 6 7 9 9 9 7 8 7 6 7 6 7 7 7 8 8 10 12 14 13 13 12 10 8 6 5 4 5 6 6 7
21 22 22 23 24 22 21 20 19 18 18 19 18 16 15 14 15 15 15 14 14 14 14 13 13 12 12 11 11 10 9 8 7 6 5 4 2 1 1 2 3 3 5 9 8 8 9 9 9 8 7 6 7 7 7 7 7 9 8 6 7 7 6 6 6 6 5 7 8 7 9 10 12 13 12 12 10 8 6 6 5 4 5 6 7
20 19 19 20 22 20 20 19 18 18 18 18 17 16 14 15 15 15 14 14 14 14 14 13 12 12 11 11 10 10 9 8 7 5 4 3 2 1 2 3 4 5 8 8 6 8 8 8 8 7 6 5 5 6 8 8 7 8 7 6 5 6 6 5 5 5 4 6 6 5 6 7 10 11 10 11 10 8 6 6 6 4 5 6 6
19 18 18 19 19 18 18 18 17 17 17 16 16 15 14 14 15 14 14 14 14 13 13 13 12 12 11 11 10 9 8 7 5 4 3 2 1 2 3 5 6 8 10 6 7 9 9 8 7 6 5 5 6 7 8 9 9 7 6 5 4 4 4 4 4 4 4 5 4 4 4 5 7 8 8 9 9 8 6 6 6 5 5 5 6
18 17 17 17 16 15 15 17 17 17 17 16 16 15 15 14 15 14 14 13 13 12 12 12 11 11 10 9 8 7 6 5 4 3 1 1 2 3 4 5 6 9 10 8 9 9 9 7 6 6 6 7 7 9 9 10 10 9 7 5 4 3 3 4 4 3 3 4 4 4 4 3 5 6 6 7 8 7 6 6 6 5 5 5 6
18 17 16 15 14 13 13 14 16 17 18 17 16 15 14 14 14 13 13 13 12 12 11 11 10 10 9 8 7 6 5 4 3 1 0 1 2 2 3 4 5 8 9 9 9 8 5 4 6 6 8 9 9 11 10 10 10 10 8 6 5 3 3 4 4 4 4 4 4 4 4 2 3 4 5 6 6 6 6 6 6 5 6 6 5
17 16 15 15 15 13 12 12 14 16 17 17 16 15 13 13 13 12 12 11 11 10 10 9 9 8 8 7 6 4 3 3 2 1 1 1 1 2 3 4 5 6 7 7 8 7 5 4 4 4 7 9 10 11 11 11 11 10 9 6 5 4 3 3 4 5 5 6 5 4 3 2 1 2 3 4 5 5 5 5 6 6 6 7 6
16 16 15 15 15 14 12 12 12 13 14 15 14 14 12 11 11 10 9 9 8 8 8 7 7 7 6 6 5 4 4 3 3 3 2 1 1 2 3 3 4 5 6 6 6 6 6 4 3 4 5 7 10 11 12 12 11 11 9 8 7 6 5 4 3 3 4 5 5 4 3 2 1 0 1 2 3 4 4 4 5 6 6 6 7
15 15 15 14 14 13 12 12 11 11 12 12 12 12 11 10 9 8 8 7 6 6 5 5 5 5 5 5 5 5 4 3 3 3 3 3 3 4 4 4 5 5 6 7 6 5 6 6 4 5 5 7 9 10 11 11 11 10 9 9 9 9 9 7 5 3 2 2 4 5 4 2 2 2 1 1 2 2 2 2 3 5 6 6 7
14 14 14 14 13 12 12 11 10 11 12 12 11 10 10 9 8 7 7 6 5 5 5 5 5 5 5 5 5 5 4 2 2 3 3 4 4 4 5 5 7 7 6 7 6 5 6 7 7 6 6 6 8 9 10 10 10 10 9 9 9 10 10 10 8 6 3 2 3 4 4 4 3 3 2 1 2 2 1 1 2 4 6 7 7
14 14 13 12 11 10 10 10 9 10 11 11 10 10 9 8 7 7 6 6 5 5 4 5 5 5 5 6 6 5 4 2 2 3 4 5 5 4 5 5 7 8 7 7 7 6 6 7 7 7 7 7 8 9 10 11 11 11 11 10 10 9 9 10 10 8 6 4 3 4 4 4 4 4 4 3 3 3 2 1 1 2 4 6 6
13 12 11 10 9 9 9 8 8 9 10 10 8 8 8 7 7 6 5 5 5 5 4 4 5 5 5 6 5 4 3 3 3 3 4 4 5 5 5 5 6 7 8 8 7 7 6 6 7 7 8 9 10 11 12 13 13 14 14 13 12 11 10 10 10 10 9 7 6 5 5 5 5 5 5 5 4 4 4 3 1 2 3 4 6
11 11 10 9 9 8 8 8 8 8 9 9 8 8 7 6 6 6 5 5 5 4 4 4 5 5 6 6 5 4 4 4 4 4 4 4 5 5 5 5 6 7 8 8 8 8 8 8 8 8 9 11 12 14 14 15 15 16 16 16 15 14 12 11 10 11 11 10 8 7 7 7 7 6 7 7 6 6 5 5 4 2 3 3 4
11 10 9 9 9 8 8 7 7 7 8 8 8 7 7 6 6 6 5 5 4 3 3 3 4 5 6 6 6 5 4 4 4 4 4 5 5 5 6 6 7 8 8 8 8 8 9 9 10 11 12 14 15 16 16 17 17 17 18 18 17 17 15 13 12 12 12 12 10 9 8 8 8 8 8 8 8 7 7 7 6 5 4 3 3
11 10 10 9 9 8 8 7 7 7 7 7 7 7 7 7 6 6 6 5 4 4 4 4 4 5 5 6 6 5 4 4 4 5 5 6 6 6 7 7 8 9 9 9 8 8 9 10 11 13 14 16 16 17 18 17 18 18 18 18 18 17 16 15 14 14 14 14 13 10 9 8 9 9 9 10 9 9 8 8 9 8 6 5 4
11 10 10 9 9 8 7 7 7 7 7 8 7 7 7 7 6 6 6 5 5 5 5 5 5 5 5 5 4 4 4 4 5 5 6 7 8 8 8 8 8 9 9 9 9 9 9 11 13 14 15 16 17 17 18 18 18 19 19 19 19 18 17 16 17 18 17 16 14 12 11 9 10 10 10 11 10 10 10 10 10 10 9 7 5
11 10 10 10 9 9 8 8 8 7 8 8 8 8 7 7 6 6 6 6 6 7 6 6 6 6 5 6 5 4 5 5 6 6 7 7 8 9 10 10 10 9 9 9 9 10 11 13 14 16 16 17 17 18 18 18 19 19 20 20 20 20 19 19 19 19 18 17 15 13 12 11 11 10 11 11 11 11 12 11 11 11 11 9 9
12 12 11 10 10 10 9 8 8 8 8 8 8 8 8 8 7 8 7 7 7 6 6 5 5 6 6 6 6 5 5 6 7 7 8 9 9 9 10 10 10 9 9 9 10 12 13 15 16 17 17 17 18 19 19 20 20 20 20 20 20 20 20 20 19 18 17 16 15 14 13 12 12 11 11 11 12 12 12 12 12 12 12 11 11
13 13 12 11 11 10 10 9 9 8 8 8 9 9 9 9 9 9 8 7 7 6 5 5 5 5 6 6 6 6 6 7 8 8 8 9 10 10 10 11 10 10 10 11 12 14 16 17 17 17 17 18 19 20 21 21 20 20 20 19 18 18 18 18 17 16 16 15 15 15 14 13 13 13 13 12 11 11 12 12 12 12 12 12 11
12 12 12 12 11 11 10 10 10 9 9 9 10 10 10 10 11 10 8 9 8 5 5 4 5 5 6 6 7 7 7 7 8 9 9 10 11 11 11 11 12 11 11 13 15 17 18 19 18 18 18 18 20 20 20 19 18 18 17 16 16 15 16 16 15 15 15 15 14 15 15 14 14 14 14 13 12 12 13 13 13 13 13 12 12
12 13 13 12 12 11 11 11 10 10 9 10 11 11 11 11 11 10 10 9 8 6 6 5 5 6 6 7 7 7 8 9 9 9 10 11 12 12 12 12 13 13 13 15 18 20 21 20 19 19 19 19 20 19 18 16 14 14 14 14 15 15 15 14 14 13 13 13 14 15 15 15 14 14 14 14 13 13 13 13 13 13 14 13 13
13 13 12 11 12 13 12 12 11 10 10 11 11 11 11 11 11 10 10 8 7 8 7 7 6 6 7 7 7 8 9 10 11 11 11 12 13 12 12 13 14 15 16 18 20 22 22 22 21 20 19 19 18 17 16 14 13 12 12 14 15 15 14 13 12 12 11 12 13 14 15 15 14 14 13 13 13 13 13 12 12 13 14 13 13
13 12 11 11 12 13 12 12 11 11 12 12 12 12 12 11 10 9 8 7 7 8 8 8 7 7 7 7 8 9 11 11 11 12 12 13 13 13 14 15 16 16 17 20 22 23 23 23 21 20 19 19 17 15 13 13 13 12 12 13 13 13 13 12 10 10 10 11 11 12 13 14 14 14 13 12 12 13 14 13 13 14 15 14 15
13 12 12 12 12 12 12 12 12 12 13 12 12 12 12 11 10 9 8 6 6 7 8 8 8 8 8 8 9 10 12 12 12 11 12 13 14 15 16 17 17 18 19 22 23 23 23 22 21 19 18 18 17 15 13 12 13 12 12 12 12 11 11 11 11 10 9 9 10 10 10 11 12 14 14 13 13 13 14 15 14 15 16 16 17
13 13 13 12 12 12 12 11 12 12 12 12 13 13 12 11 11 10 7 6 7 8 9 9 8 9 9 9 10 10 11 12 12 12 13 15 15 16 17 18 19 20 21 23 23 23 22 19 18 16 16 16 16 15 13 12 13 12 11 11 10 10 9 10 11 10 10 10 10 10 11 11 11 12 13 14 15 15 16 17 17 17 17 17 18
15 15 14 12 12 13 12 12 11 11 12 12 12 12 12 12 12 11 9 7 8 10 10 9 9 10 10 10 10 11 10 11 12 14 16 17 15 15 17 19 19 21 23 23 23 21 18 16 15 14 14 14 15 14 13 13 14 13 11 10 9 9 9 10 10 10 10 10 11 11 11 11 11 11 11 12 14 16 17 19 19 19 18 18 18
18 17 15 14 14 14 13 13 12 11 11 11 11 11 11 11 12 12 11 9 9 11 11 9 9 11 11 11 11 11 12 12 14 16 16 14 14 16 18 20 19 20 21 21 20 19 16 14 13 14 14 14 14 13 12 13 14 14 13 10 10 9 9 9 9 10 10 10 11 11 11 11 12 11 11 10 11 14 18 19 20 20 19 19 19
19 18 16 15 14 13 13 13 11 11 11 10 10 10 10 10 11 13 11 11 12 12 12 10 11 13 14 15 14 13 13 13 15 16 14 13 15 18 19 19 18 18 18 18 18 17 15 14 13 14 14 14 13 12 12 12 13 14 14 13 11 9 8 9 9 9 10 10 11 11 11 11 11 11 10 10 9 11 14 18 19 20 20 20 20
19 18 16 15 13 13 12 11 11 10 10 9 9 10 10 10 11 12 12 13 14 13 12 11 10 12 14 16 15 14 13 13 14 14 13 13 16 17 16 16 15 16 16 15 15 15 14 14 13 13 14 15 14 12 11 11 12 13 15 15 13 10 8 8 8 9 9 9 9 10 10 11 10 10 10 9 8 8 10 13 16 18 19 20 20
19 17 14 14 14 13 12 12 12 11 11 11 11 12 11 11 12 13 13 13 13 12 13 11 9 9 11 13 15 15 13 11 11 10 10 11 12 12 12 12 12 13 14 14 13 13 13 13 13 13 13 14 13 12 10 10 11 11 12 16 16 13 10 10 9 8 8 8 8 8 9 9 9 10 9 9 8 8 9 10 12 14 17 18 19
18 16 14 15 15 15 14 13 13 13 13 13 12 12 12 12 13 13 13 12 11 12 12 10 7 8 9 11 13 12 10 6 5 5 6 6 7 7 8 9 10 11 11 12 12 11 11 11 12 12 12 12 12 11 9 9 9 9 9 12 15 15 13 13 11 9 8 8 8 9 9 9 10 9 9 9 9 9 10 11 11 13 14 16 17
20 18 17 17 16 15 15 14 14 14 14 14 14 14 14 13 13 12 12 11 10 11 11 10 10 11 11 10 10 8 6 3 2 2 1 2 3 5 6 7 8 9 10 10 10 10 10 10 10 11 12 12 11 11 9 8 8 8 8 9 11 13 13 13 14 12 10 9 9 10 10 11 11 11 10 10 10 10 11 11 12 13 14 15 16
20 19 18 17 15 15 15 15 15 15 15 16 16 16 15 14 13 12 11 12 12 13 14 14 13 14 13 12 11 10 8 6 5 4 4 4 5 6 6 7 8 9 10 10 10 10 10 10 10 10 12 12 11 10 10 9 8 8 8 9 9 10 10 12 13 12 11 11 11 11 12 12 13 13 13 12 12 11 12 12 13 15 16 16 16
20 19 18 16 15 16 16 17 17 17 18 18 17 16 16 15 14 14 14 15 16 16 16 16 15 14 13 13 12 12 11 10 9 9 8 8 8 8 9 9 9 9 10 11 11 11 11 11 10 10 11 11 11 10 10 9 8 8 9 9 9 9 9 11 11 11 12 12 12 13 13 13 13 14 14 14 14 14 14 14 15 16 16 17 18
20 19 18 17 17 17 18 18 18 19 19 18 17 16 16 16 17 18 18 17 17 16 16 15 15 14 13 12 12 12 12 12 11 11 11 11 11 11 11 10 10 9 9 9 9 10 11 10 10 9 9 10 9 9 9 9 8 8 8 8 8 7 7 8 9 10 12 13 13 13 14 14 14 14 15 15 16 16 17 17 17 18 18 18 19
20 20 19 18 18 18 18 19 19 19 18 17 17 16 16 17 18 18 17 16 15 15 14 14 14 13 12 11 11 10 10 11 11 12 12 13 13 13 13 12 11 11 10 9 9 9 10 10 10 9 9 9 8 7 7 7 6 6 6 6 6 5 5 5 7 8 10 12 13 14 15 16 15 15 15 15 16 17 17 18 19 19 20 20 20
21 21 20 19 19 19 19 20 19 18 17 16 16 16 17 17 17 17 16 15 14 13 12 12 12 11 10 9 9 9 9 9 10 11 12 13 14 14 14 14 13 13 12 11 10 9 9 9 10 10 10 9 8 7 6 6 6 6 6 6 5 5 5 5 6 7 8 9 12 14 16 17 17 17 16 16 17 18 18 19 20 20 21 21 21
22 22 22 21 21 21 21 21 20 18 17 16 15 15 16 15 15 15 15 14 13 12 11 10 10 9 8 7 7 7 8 8 9 10 10 12 13 14 15 15 15 14 13 12 12 11 10 10 10 10 10 9 9 8 7 6 6 6 6 6 6 6 7 8 9 9 10 10 10 12 14 14 16 18 19 19 19 20 20 21 21 21 22 23 23
24 24 24 24 23 23 23 22 20 19 17 16 15 14 14 13 13 14 14 13 13 12 11 10 9 7 6 6 6 6 7 8 9 9 9 10 11 13 15 16 16 16 15 14 14 13 12 11 11 10 10 10 10 9 8 7 8 8 7 7 7 8 9 10 12 13 14 14 13 13 14 15 16 17 19 20 20 20 21 21 22 23 23 24 24
Wind_Direction
120 126 134 138 132 129 130 129 127 130 133 133 132 130 127 127 128 130 130 129 129 132 137 138 140 139 138 137 132 131 132 135 135 128 117 109 102 94 91 85 75 68 64 58 56 62 68 67 62 57 50 43 38 35 33 34 41 47 51 67 77 68 61 59 51 39 37 38 38 41 44 44 43 46 52 61 73 89 97 96 123 138 144 143 127
132 133 131 133 132 130 130 130 129 132 134 134 133 130 128 129 131 133 130 128 128 131 134 135 137 137 138 138 136 133 132 131 129 124 118 112 103 96 91 83 76 68 64 57 56 63 67 64 58 52 45 39 33 31 29 28 32 38 42 54 69 66 57 52 46 36 34 36 38 40 44 46 46 48 51 59 65 68 73 80 90 101 109 108 107
138 136 133 135 135 133 133 132 132 134 134 135 134 132 130 131 135 134 131 129 129 131 133 134 134 135 137 139 138 136 133 131 128 125 120 115 107 99 92 86 80 69 64 58 62 71 70 61 54 47 39 31 28 28 26 26 26 28 32 37 47 54 50 41 34 33 35 36 39 40 41 44 45 47 51 57 57 54 61 80 92 99 105 103 106
135 133 134 137 138 137 137 136 137 138 136 137 136 133 132 134 136 133 131 129 130 130 130 131 133 135 138 140 141 141 138 134 131 128 124 119 111 102 96 91 82 72 65 65 71 75 67 56 51 42 30 24 25 27 28 29 28 26 28 31 33 32 29 29 27 29 38 39 40 40 39 39 41 43 48 54 54 51 57 77 94 100 105 106 106
132 129 131 137 140 139 137 138 140 140 139 138 137 135 134 136 136 133 131 129 129 128 127 129 132 135 138 143 146 146 144 138 135 133 129 124 118 111 102 94 87 77 68 73 76 71 59 47 42 34 22 21 21 24 31 33 31 28 30 39 42 31 20 19 21 21 32 41 39 38 38 37 38 39 44 52 53 51 56 69 87 97 104 106 105
130 128 130 134 137 137 135 137 139 138 137 137 138 137 136 138 136 132 130 129 127 126 127 129 132 136 140 144 146 147 146 144 142 138 136 135 132 124 114 108 105 93 78 78 74 62 47 36 29 23 17 18 19 22 29 30 27 27 31 40 44 36 28 25 23 18 20 34 37 38 40 38 39 39 39 48 53 53 57 64 75 86 94 100 105
127 130 132 132 133 136 133 133 136 136 134 135 138 138 139 140 138 132 127 125 125 126 128 131 135 137 139 140 141 143 144 144 144 145 145 146 144 141 138 135 130 115 92 72 63 47 32 25 17 14 13 11 13 17 21 24 22 24 31 37 39 30 29 33 33 29 17 22 35 41 43 42 44 45 37 41 53 57 60 63 68 75 82 92 99
120 126 131 132 132 133 130 129 132 133 133 134 136 137 138 138 136 133 127 125 127 128 130 133 134 136 137 138 139 138 138 141 145 149 150 149 148 148 145 141 131 113 88 55 41 25 13 11 7 9 10 2 5 12 14 26 26 25 26 30 40 32 32 36 37 46 28 16 32 42 43 42 48 54 43 34 49 60 64 65 65 67 71 81 92
118 121 128 132 131 130 127 128 130 129 128 132 135 135 134 132 133 134 133 131 131 131 131 132 132 135 139 140 139 137 137 140 143 146 147 146 144 140 134 125 109 92 52 15 9 3 351 352 357 2 6 359 4 11 12 26 27 29 32 24 34 38 44 55 48 57 51 22 31 41 40 42 49 58 54 36 42 58 63 67 66 65 64 67 82
119 122 126 130 129 126 123 126 129 128 127 129 132 133 132 132 134 136 136 135 135 134 133 133 135 137 138 140 139 139 140 139 140 140 140 137 131 122 109 93 78 47 360 345 344 349 340 338 345 352 356 357 5 10 14 22 17 25 44 35 38 43 46 70 72 68 65 39 36 43 39 42 50 57 61 46 44 56 53 56 64 67 66 64 69
119 122 125 128 127 124 123 126 130 129 129 128 129 133 134 135 137 136 136 135 134 134 134 135 136 137 137 138 139 140 140 137 135 131 128 121 114 106 92 77 52 11 343 331 331 334 321 314 330 348 345 349 6 13 17 21 14 19 38 42 55 60 54 77 88 77 69 62 51 49 42 42 49 53 58 56 53 63 55 40 53 66 69 70 69
120 121 125 129 128 126 125 126 129 131 131 128 130 133 136 138 137 136 136 133 133 133 135 136 136 136 137 138 139 140 138 135 128 121 116 109 105 102 92 61 26 355 336 324 310 296 294 308 336 354 341 345 16 28 31 29 22 22 31 35 52 66 70 82 95 82 73 77 65 57 50 42 48 50 52 57 59 71 70 44 52 64 70 81 82
126 122 124 130 132 128 125 127 128 131 132 128 128 131 134 137 136 135 134 133 132 134 136 137 137 137 137 138 138 138 135 129 120 114 109 108 109 103 72 26 1 344 332 297 281 289 320 337 343 344 338 0 23 31 45 44 32 29 28 28 40 54 70 77 83 81 79 84 72 62 57 44 45 46 47 52 56 70 76 64 59 66 76 87 92
132 126 124 129 134 131 127 130 130 131 133 128 126 129 132 134 133 132 132 134 134 135 137 138 139 139 138 138 138 135 132 127 122 118 116 115 106 76 2 350 322 322 293 272 286 328 347 347 343 336 333 8 29 25 32 39 37 34 24 17 37 46 61 72 71 74 85 91 82 68 60 48 43 41 44 49 49 59 73 77 70 69 86 89 92
137 132 127 127 131 131 130 132 132 133 132 127 127 130 135 136 132 131 134 136 137 138 139 141 142 141 141 141 139 135 133 132 130 127 123 113 81 15 339 318 305 296 269 275 330 356 354 355 349 336 332 6 40 31 24 27 34 38 22 5 30 44 49 55 52 58 83 94 90 72 59 49 44 39 41 49 48 51 64 82 86 76 82 92 95
137 135 133 129 128 130 132 132 133 136 132 131 134 135 138 139 134 134 137 137 139 141 142 143 144 145 144 143 140 138 137 134 133 127 116 91 14 331 321 306 303 289 280 318 11 11 6 3 353 338 332 357 36 39 28 26 25 34 27 2 14 37 39 26 21 38 70 84 78 59 48 46 49 43 42 50 51 50 57 72 89 87 80 92 99
138 138 137 133 129 129 133 134 138 139 135 138 141 142 144 142 139 139 140 141 142 142 142 143 144 146 144 141 138 137 136 131 131 120 97 27 342 325 318 307 307 297 307 2 31 25 13 4 3 350 326 335 18 31 23 21 20 26 23 2 1 17 15 353 345 359 38 68 67 47 31 37 55 52 43 50 55 51 56 68 81 91 96 96 97
139 138 136 134 132 129 132 136 141 143 142 146 145 146 146 143 143 144 143 144 144 144 144 145 145 144 142 140 139 138 137 136 138 128 60 13 1 336 333 323 324 312 326 12 39 34 21 24 22 350 327 336 7 20 15 14 19 25 20 7 358 357 356 336 329 348 8 25 47 43 21 13 50 61 46 41 52 54 55 70 82 90 99 102 102
140 140 137 136 135 132 134 137 142 145 144 146 147 147 145 143 145 144 144 145 146 147 146 147 147 147 145 144 144 145 152 163 175 194 232 4 10 336 338 338 342 333 332 7 36 36 34 50 31 346 337 352 9 9 6 8 16 25 19 7 353 344 6 353 336 357 5 358 5 16 7 351 8 71 58 32 41 53 54 67 85 94 99 108 114
143 144 142 140 138 137 139 140 140 143 144 143 143 144 142 143 144 143 144 145 145 145 145 148 149 149 146 146 151 160 178 192 211 224 239 279 318 310 311 326 343 346 335 355 28 32 31 48 34 7 0 9 12 3 4 9 14 24 18 4 354 345 355 360 349 4 6 350 337 329 332 333 309 184 82 28 29 45 56 66 83 96 100 107 115
147 147 145 145 144 141 141 141 136 139 145 145 144 142 143 145 145 146 146 147 145 143 143 145 147 149 147 151 161 170 182 196 223 239 252 274 299 296 286 294 319 340 337 342 12 28 27 37 26 15 18 20 15 7 9 9 7 13 12 4 0 356 353 348 344 350 358 342 321 312 309 308 281 238 215 356 4 25 57 77 90 100 106 107 112
152 149 147 149 148 143 141 141 136 140 147 147 148 144 144 147 146 149 150 151 149 147 147 149 152 154 156 159 165 167 170 186 221 249 273 284 295 291 285 290 302 324 330 332 358 20 19 19 10 3 9 13 8 4 360 355 354 352 352 355 357 358 354 348 342 337 330 316 305 304 300 289 271 244 218 250 316 322 359 81 100 103 107 110 112
152 150 149 152 152 147 145 145 143 148 151 148 149 148 147 151 152 154 157 157 155 156 155 158 159 155 160 162 165 166 168 189 231 265 282 287 292 290 293 296 298 314 322 325 343 2 7 4 359 352 347 347 343 342 339 337 335 333 335 339 342 344 343 342 339 336 330 314 290 280 287 285 272 256 231 221 257 281 282 292 109 116 112 113 117
147 150 154 156 156 158 156 156 154 154 156 152 154 156 159 163 160 161 163 166 167 169 167 166 166 161 167 170 174 183 192 217 252 271 282 289 292 293 293 299 302 310 316 318 326 337 345 344 342 338 331 328 324 324 325 324 323 323 323 324 326 325 325 327 328 330 328 317 299 276 267 272 274 265 254 234 229 250 258 254 235 157 132 120 120
149 152 157 159 160 166 165 165 164 162 163 161 164 169 173 178 174 173 174 175 177 175 170 170 174 176 182 186 193 208 223 242 265 277 286 291 291 292 291 296 306 310 312 312 316 323 326 327 324 319 316 313 314 316 317 318 318 318 317 315 313 309 309 312 316 321 321 316 304 288 270 263 266 266 266 256 237 236 240 239 236 208 168 140 128
157 157 158 160 164 171 170 168 171 171 171 172 175 179 182 185 186 191 192 185 185 180 177 184 189 191 195 199 205 218 236 254 274 286 290 290 289 292 293 297 304 309 310 309 312 318 319 318 314 310 308 307 308 310 310 311 311 310 311 311 308 304 299 298 304 309 312 312 303 291 279 267 263 261 262 262 254 241 233 235 237 227 204 170 143
163 164 164 165 168 175 176 173 175 173 175 179 181 184 188 191 189 198 203 196 193 194 198 202 205 207 210 211 213 223 241 258 274 289 294 290 290 295 298 299 303 308 309 308 308 310 311 309 307 306 305 305 306 306 305 305 304 304 306 307 306 303 296 291 293 296 300 302 300 291 278 268 263 259 257 259 258 250 239 234 237 234 225 204 169
170 170 171 173 171 176 181 179 178 175 175 178 182 186 191 194 191 192 200 199 199 204 208 209 213 220 228 235 237 241 256 271 280 289 296 294 293 297 300 301 304 307 307 305 300 299 301 302 303 304 304 306 307 307 306 304 302 302 304 304 302 299 295 289 288 290 291 290 291 289 278 267 260 256 254 253 253 252 246 239 238 237 234 223 206
173 177 179 180 178 180 185 185 183 180 177 178 182 188 192 197 197 198 202 204 208 214 216 217 224 234 247 259 262 264 273 282 285 285 289 292 294 297 300 302 302 302 303 299 292 291 294 298 302 304 305 308 310 311 309 307 305 303 302 301 298 296 293 289 286 285 285 282 281 282 278 270 261 252 249 249 248 247 245 242 236 235 234 226 218
177 183 184 185 188 188 191 194 192 189 185 185 189 194 199 203 209 213 212 214 219 220 218 219 228 241 255 265 267 269 277 283 284 284 288 291 294 298 299 298 297 297 296 292 288 290 295 300 302 303 305 307 310 313 313 311 308 306 303 300 298 297 295 292 287 283 280 277 274 275 275 271 264 253 244 241 245 244 243 244 240 238 237 232 225
181 182 184 189 193 193 198 202 202 201 195 196 201 206 208 211 219 224 222 225 229 225 221 221 224 237 250 259 261 266 275 280 282 285 286 288 289 293 295 292 293 294 292 290 290 294 299 303 303 303 303 305 308 310 311 309 307 306 303 300 300 300 300 297 291 284 279 275 271 270 272 270 267 260 247 237 238 242 243 246 246 245 243 240 237
179 179 185 191 192 194 203 207 207 205 202 204 210 215 219 223 231 236 234 235 238 236 233 231 225 234 246 252 255 264 274 277 282 284 281 284 288 288 291 291 293 294 293 292 292 295 300 303 305 305 305 306 308 310 310 307 305 304 303 303 304 304 305 305 300 291 281 275 270 267 268 268 267 265 257 244 235 237 242 243 242 243 242 239 238
179 184 189 190 190 193 202 207 208 206 205 210 213 219 226 233 242 244 243 242 244 244 244 245 237 240 249 251 256 265 273 276 280 282 276 280 287 289 290 292 292 293 291 291 292 294 297 302 305 306 306 308 310 311 311 308 305 303 304 308 309 309 308 308 308 302 291 280 272 268 267 267 266 266 264 255 242 237 241 244 241 239 240 240 240
188 193 191 189 193 197 202 207 208 206 209 214 216 220 228 238 247 250 251 250 247 245 247 250 246 246 248 253 262 266 269 270 275 281 279 280 286 290 289 285 282 283 286 288 291 294 297 300 303 304 306 309 310 311 311 308 303 301 306 309 309 312 314 313 310 305 301 292 283 275 270 269 268 266 267 263 252 243 242 243 243 241 240 239 241
197 196 191 194 199 202 204 207 209 210 214 218 219 223 228 235 243 249 254 255 251 247 246 245 243 244 244 252 263 267 268 268 273 284 288 289 290 289 287 283 281 280 283 288 291 294 298 299 300 303 305 305 306 310 310 302 296 299 306 308 308 312 318 321 319 312 308 307 301 291 280 273 269 266 265 265 259 251 247 246 244 242 240 235 233
201 196 196 200 204 205 204 206 210 213 218 221 223 225 227 230 236 243 250 254 253 249 244 240 239 242 243 249 261 270 272 269 271 279 290 297 294 290 285 280 281 281 282 287 292 296 299 299 299 300 300 300 302 307 309 299 292 295 302 305 305 310 317 321 324 324 321 318 313 306 296 284 275 268 262 260 259 254 252 252 249 243 238 233 230
200 201 204 205 206 206 205 206 210 215 219 222 223 225 226 226 229 231 236 243 245 244 242 242 242 243 245 251 264 274 274 269 266 269 285 296 294 291 285 276 276 280 282 287 294 297 298 296 295 295 294 294 297 302 306 302 294 295 303 306 303 307 316 319 322 324 322 317 311 308 304 298 290 280 268 258 254 252 251 252 252 248 242 236 233
200 204 208 205 205 206 205 207 210 216 221 222 221 222 223 224 225 224 226 233 240 242 244 245 244 242 244 254 267 271 270 272 272 276 288 292 286 281 279 276 276 279 284 290 295 296 294 290 289 289 288 287 289 295 300 300 298 301 308 309 303 304 310 312 315 315 313 309 305 303 300 299 297 294 285 267 252 248 249 251 252 251 248 243 239
202 206 209 207 208 209 208 208 211 217 222 222 220 221 223 224 224 224 227 233 238 242 242 238 240 243 245 253 261 261 261 268 276 282 287 286 281 276 274 275 277 280 286 291 293 291 290 288 285 285 285 284 286 292 296 297 298 301 308 309 302 301 303 304 305 302 300 299 298 297 296 296 296 297 297 286 264 249 246 249 251 252 251 249 242
206 207 210 213 217 216 214 214 216 221 223 221 222 222 224 226 224 224 229 237 238 239 235 228 234 244 246 250 253 253 257 267 277 281 279 275 276 275 272 274 277 282 286 286 286 286 287 287 283 283 286 289 292 296 298 297 297 298 301 302 301 302 302 300 299 297 295 294 295 294 294 294 295 296 296 293 280 259 248 246 248 251 251 249 245
212 211 212 216 220 220 218 218 220 223 222 217 217 217 219 222 221 220 226 233 233 231 225 221 232 241 243 247 248 245 250 262 273 273 265 263 267 268 270 274 278 280 280 279 280 282 285 287 285 284 288 292 296 298 297 295 293 294 296 297 301 306 308 305 303 302 301 301 299 295 296 296 297 297 294 290 283 271 257 248 247 249 250 250 247
218 218 217 215 216 218 216 217 219 217 213 208 207 207 211 213 211 213 220 226 227 224 221 223 230 228 224 230 232 233 239 253 264 262 253 252 259 265 270 273 273 274 275 279 282 283 286 288 288 288 289 291 294 296 295 291 288 288 289 293 299 306 309 308 307 309 308 308 305 300 298 297 297 297 294 288 282 275 268 260 253 251 253 254 252
222 221 215 211 212 214 212 213 214 208 204 202 197 196 200 202 202 205 211 217 218 215 212 209 202 189 184 194 205 213 222 235 242 242 244 249 259 269 274 275 276 278 282 287 289 288 289 289 289 290 290 290 292 294 295 293 290 285 280 283 292 300 305 305 305 309 308 305 305 304 302 297 295 296 295 292 287 283 279 274 268 262 259 259 257
222 218 211 210 210 208 206 205 204 200 197 191 183 185 190 192 195 198 201 201 196 187 181 171 157 147 144 148 156 164 168 158 155 176 239 290 299 301 298 297 296 296 297 299 299 296 294 291 289 291 292 293 294 298 302 302 298 290 279 274 279 287 294 298 303 307 307 305 304 304 304 302 298 296 295 294 291 287 284 283 281 278 274 269 264
220 215 212 209 202 198 197 194 192 191 187 179 176 179 182 183 187 189 185 176 164 154 149 143 133 126 123 121 118 114 108 96 83 63 42 24 1 345 334 326 321 318 316 315 312 308 304 300 297 295 295 298 301 305 308 307 302 290 280 272 267 267 272 282 294 300 301 302 301 300 302 302 302 301 299 296 294 289 285 283 283 284 284 282 278
215 213 210 204 194 190 188 185 184 181 176 173 172 173 174 174 174 170 161 154 147 140 134 128 121 116 112 107 101 95 87 78 69 59 47 36 24 12 4 353 343 336 328 324 320 315 312 310 305 299 296 300 305 306 304 305 302 291 285 278 270 264 260 265 276 285 291 295 296 295 298 301 304 305 302 298 295 292 289 285 283 282 283 284 284
210 208 203 197 191 186 182 181 179 175 172 171 169 168 169 168 163 157 152 147 142 136 129 121 115 110 105 100 94 87 81 73 67 60 53 43 34 25 18 10 0 351 341 334 327 319 316 313 307 302 297 296 296 296 296 298 298 294 292 289 286 280 264 256 258 266 279 288 293 294 294 297 300 302 301 298 294 291 289 287 284 282 281 280 280
207 205 199 194 188 183 179 177 175 173 172 170 169 170 170 166 162 158 155 150 145 137 129 120 114 109 104 97 91 84 77 71 64 58 52 44 36 28 20 14 7 2 355 348 338 327 319 313 308 301 294 289 288 290 292 296 303 306 311 312 310 306 290 266 257 257 266 277 285 290 292 293 294 293 293 293 292 290 287 285 284 283 281 280 278
206 204 199 194 189 183 178 176 174 172 171 169 171 172 173 172 170 167 163 158 152 146 137 127 119 114 106 97 90 82 73 65 56 49 44 38 32 26 19 12 7 2 358 351 343 335 326 318 313 305 299 297 297 299 302 309 317 323 329 333 327 318 306 293 284 277 270 268 273 280 285 290 293 294 294 293 292 290 287 284 282 281 280 280 279
205 205 202 197 191 185 180 178 175 172 170 168 169 172 176 180 181 179 174 167 162 158 152 142 134 126 116 103 89 76 64 54 47 39 34 29 24 19 14 9 4 360 355 351 347 344 339 330 321 315 310 309 308 310 314 317 319 322 323 322 316 309 304 300 298 296 293 287 282 282 282 283 285 290 293 293 292 291 289 287 284 282 281 280 280
204 205 203 198 191 186 183 182 179 177 175 172 171 174 177 182 186 187 184 178 174 170 164 157 149 140 125 107 86 67 54 45 39 32 25 19 14 9 5 3 2 359 354 351 351 349 345 338 329 324 320 317 313 311 311 311 310 308 304 300 298 295 295 297 299 301 302 301 298 293 287 282 279 282 287 290 292 292 290 288 286 284 282 281 281